Time,TemperatureF,DewpointF,PressureIn,WindDirection,WindDirectionDegrees,WindSpeedMPH,WindSpeedGustMPH,Humidity,HourlyPrecipIn,Conditions,Clouds,dailyrainin,SolarRadiationWatts/m^2,SoftwareType,DateUTC
2013-06-05 00:01:00,48.3,44.0,30.10,North,0,0.0,0.0,85,0.00,CLR,,0.00,0.0,WeatherDisplay:10.37,2013-06-05 04:01:00,
2013-06-05 00:02:00,48.3,44.3,30.10,North,0,0.0,0.0,86,0.00,CLR,,0.00,0.0,WeatherDisplay:10.37,2013-06-05 04:02:00,
2013-06-05 00:07:00,48.1,44.1,30.11,North,0,0.0,0.0,86,0.00,CLR,,0.00,0.0,WeatherDisplay:10.37,2013-06-05 04:07:00,
2013-06-05 00:12:00,47.9,43.9,30.11,North,0,0.0,0.0,86,0.00,CLR,,0.00,0.0,WeatherDisplay:10.37,2013-06-05 04:12:00,
2013-06-05 00:17:00,47.8,43.8,30.11,North,0,0.0,0.0,86,0.00,CLR,,0.00,0.0,WeatherDisplay:10.37,2013-06-05 04:17:00,
2013-06-05 00:22:00,47.6,43.6,30.11,North,0,0.0,0.0,86,0.00,CLR,,0.00,0.0,WeatherDisplay:10.37,2013-06-05 04:22:00,
2013-06-05 00:27:00,47.5,43.8,30.11,North,0,0.0,0.0,87,0.00,CLR,,0.00,0.0,WeatherDisplay:10.37,2013-06-05 04:27:00,
2013-06-05 00:32:00,47.3,43.6,30.11,North,0,0.0,0.0,87,0.00,CLR,,0.00,0.0,WeatherDisplay:10.37,2013-06-05 04:32:00,
2013-06-05 00:37:00,47.1,43.4,30.11,North,0,0.0,0.0,87,0.00,CLR,,0.00,0.0,WeatherDisplay:10.37,2013-06-05 04:37:00,
2013-06-05 00:42:00,47.0,43.3,30.11,North,0,0.0,0.0,87,0.00,CLR,,0.00,0.0,WeatherDisplay:10.37,2013-06-05 04:42:00,
2013-06-05 00:47:00,46.8,43.1,30.12,North,0,0.0,0.0,87,0.00,CLR,,0.00,0.0,WeatherDisplay:10.37,2013-06-05 04:47:00,
2013-06-05 00:52:00,46.7,43.0,30.12,North,0,0.0,0.0,87,0.00,CLR,,0.00,0.0,WeatherDisplay:10.37,2013-06-05 04:52:00,
2013-06-05 00:57:00,46.5,43.1,30.11,North,0,0.0,0.0,88,0.00,CLR,,0.00,0.0,WeatherDisplay:10.37,2013-06-05 04:57:00,
2013-06-05 01:02:00,46.3,42.9,30.11,North,0,0.0,0.0,88,0.00,CLR,,0.00,0.0,WeatherDisplay:10.37,2013-06-05 05:02:00,
2013-06-05 01:07:00,46.1,42.7,30.11,North,0,0.0,0.0,88,0.00,CLR,,0.00,0.0,WeatherDisplay:10.37,2013-06-05 05:07:00,
2013-06-05 01:12:00,46.0,42.9,30.12,North,0,0.0,0.0,89,0.00,CLR,,0.00,0.0,WeatherDisplay:10.37,2013-06-05 05:12:00,
2013-06-05 01:17:00,45.9,42.8,30.12,North,0,0.0,0.0,89,0.00,CLR,,0.00,0.0,WeatherDisplay:10.37,2013-06-05 05:17:00,
2013-06-05 01:22:00,45.7,42.6,30.12,North,0,0.0,0.0,89,0.00,CLR,,0.00,0.0,WeatherDisplay:10.37,2013-06-05 05:22:00,
2013-06-05 01:27:00,45.6,42.5,30.12,North,0,0.0,0.0,89,0.00,CLR,,0.00,0.0,WeatherDisplay:10.37,2013-06-05 05:27:00,
2013-06-05 01:32:00,45.5,42.7,30.12,North,0,0.0,0.0,90,0.00,CLR,,0.00,0.0,WeatherDisplay:10.37,2013-06-05 05:32:00,
2013-06-05 01:37:00,45.3,42.5,30.12,North,0,0.0,0.0,90,0.00,CLR,,0.00,0.0,WeatherDisplay:10.37,2013-06-05 05:37:00,
2013-06-05 01:42:00,45.2,42.4,30.12,North,0,0.0,0.0,90,0.00,CLR,,0.00,0.0,WeatherDisplay:10.37,2013-06-05 05:42:00,
2013-06-05 01:47:00,45.1,42.3,30.12,North,0,0.0,0.0,90,0.00,CLR,,0.00,0.0,WeatherDisplay:10.37,2013-06-05 05:47:00,
2013-06-05 01:52:00,45.0,42.2,30.12,North,0,0.0,0.0,90,0.00,CLR,,0.00,0.0,WeatherDisplay:10.37,2013-06-05 05:52:00,
2013-06-05 01:57:00,44.9,42.1,30.12,North,0,0.0,0.0,90,0.00,CLR,,0.00,0.0,WeatherDisplay:10.37,2013-06-05 05:57:00,
2013-06-05 02:02:00,44.8,42.0,30.12,North,0,0.0,0.0,90,0.00,CLR,,0.00,0.0,WeatherDisplay:10.37,2013-06-05 06:02:00,
2013-06-05 02:07:00,44.6,41.8,30.12,North,0,0.0,0.0,90,0.00,CLR,,0.00,0.0,WeatherDisplay:10.37,2013-06-05 06:07:00,
2013-06-05 02:12:00,44.6,41.8,30.12,North,0,0.0,0.0,90,0.00,CLR,,0.00,0.0,WeatherDisplay:10.37,2013-06-05 06:12:00,
2013-06-05 02:17:00,44.4,41.7,30.12,North,0,0.0,0.0,90,0.00,CLR,,0.00,0.0,WeatherDisplay:10.37,2013-06-05 06:17:00,
2013-06-05 02:22:00,44.3,41.6,30.12,North,0,0.0,0.0,90,0.00,CLR,,0.00,0.0,WeatherDisplay:10.37,2013-06-05 06:22:00,
2013-06-05 02:27:00,44.2,41.7,30.12,North,0,0.0,0.0,91,0.00,CLR,,0.00,0.0,WeatherDisplay:10.37,2013-06-05 06:27:00,
2013-06-05 02:32:00,44.1,41.6,30.12,North,0,0.0,0.0,91,0.00,CLR,,0.00,0.0,WeatherDisplay:10.37,2013-06-05 06:32:00,
2013-06-05 02:37:00,44.0,41.5,30.12,North,0,0.0,0.0,91,0.00,CLR,,0.00,0.0,WeatherDisplay:10.37,2013-06-05 06:37:00,
2013-06-05 02:42:00,43.9,41.4,30.12,North,0,0.0,0.0,91,0.00,CLR,,0.00,0.0,WeatherDisplay:10.37,2013-06-05 06:42:00,
2013-06-05 02:47:00,43.8,41.3,30.12,North,0,0.0,0.0,91,0.00,CLR,,0.00,0.0,WeatherDisplay:10.37,2013-06-05 06:47:00,
2013-06-05 02:52:00,43.8,41.3,30.12,North,0,0.0,0.0,91,0.00,CLR,,0.00,0.0,WeatherDisplay:10.37,2013-06-05 06:52:00,
2013-06-05 03:23:00,43.8,41.9,30.12,North,0,0.0,0.0,93,0.00,CLR,,0.00,0.0,WeatherDisplay:10.37,2013-06-05 07:23:00,
2013-06-05 03:28:00,43.9,42.0,30.12,North,0,0.0,0.0,93,0.00,CLR,,0.00,0.0,WeatherDisplay:10.37,2013-06-05 07:28:00,
2013-06-05 03:33:00,43.9,42.0,30.12,North,0,0.0,0.0,93,0.00,CLR,,0.00,0.0,WeatherDisplay:10.37,2013-06-05 07:33:00,
2013-06-05 03:38:00,43.9,42.0,30.12,North,0,0.0,0.0,93,0.00,CLR,,0.00,0.0,WeatherDisplay:10.37,2013-06-05 07:38:00,
2013-06-05 03:43:00,43.9,42.0,30.13,North,0,0.0,0.0,93,0.00,CLR,,0.00,0.0,WeatherDisplay:10.37,2013-06-05 07:43:00,
2013-06-05 03:48:00,43.9,42.0,30.13,North,0,0.0,0.0,93,0.00,CLR,,0.00,0.0,WeatherDisplay:10.37,2013-06-05 07:48:00,
2013-06-05 03:53:00,43.9,42.0,30.13,North,0,0.0,0.0,93,0.00,CLR,,0.00,0.0,WeatherDisplay:10.37,2013-06-05 07:53:00,
2013-06-05 03:58:00,43.9,42.0,30.13,North,0,0.0,0.0,93,0.00,CLR,,0.00,0.0,WeatherDisplay:10.37,2013-06-05 07:58:00,
2013-06-05 04:03:00,43.8,41.9,30.13,North,0,0.0,0.0,93,0.00,CLR,,0.00,0.0,WeatherDisplay:10.37,2013-06-05 08:03:00,
2013-06-05 04:08:00,43.7,41.8,30.13,North,0,0.0,0.0,93,0.00,CLR,,0.00,0.0,WeatherDisplay:10.37,2013-06-05 08:08:00,
2013-06-05 04:13:00,43.7,41.8,30.13,North,0,0.0,0.0,93,0.00,CLR,,0.00,0.0,WeatherDisplay:10.37,2013-06-05 08:13:00,
2013-06-05 04:18:00,43.6,41.7,30.13,North,0,0.0,0.0,93,0.00,CLR,,0.00,0.0,WeatherDisplay:10.37,2013-06-05 08:18:00,
2013-06-05 04:23:00,43.5,41.6,30.13,North,0,0.0,0.0,93,0.00,CLR,,0.00,0.0,WeatherDisplay:10.37,2013-06-05 08:23:00,
2013-06-05 04:28:00,43.4,41.5,30.13,North,0,0.0,0.0,93,0.00,CLR,,0.00,0.0,WeatherDisplay:10.37,2013-06-05 08:28:00,
2013-06-05 04:33:00,43.4,41.5,30.14,North,0,0.0,0.0,93,0.00,CLR,,0.00,0.0,WeatherDisplay:10.37,2013-06-05 08:33:00,
2013-06-05 04:38:00,43.3,41.4,30.14,North,0,0.0,0.0,93,0.00,CLR,,0.00,0.0,WeatherDisplay:10.37,2013-06-05 08:38:00,
2013-06-05 04:43:00,43.3,41.4,30.14,North,0,0.0,0.0,93,0.00,CLR,,0.00,0.0,WeatherDisplay:10.37,2013-06-05 08:43:00,
2013-06-05 04:48:00,43.3,41.4,30.14,North,0,0.0,0.0,93,0.00,CLR,,0.00,0.0,WeatherDisplay:10.37,2013-06-05 08:48:00,
2013-06-05 04:53:00,43.3,41.7,30.14,North,0,0.0,0.0,94,0.00,CLR,,0.00,0.0,WeatherDisplay:10.37,2013-06-05 08:53:00,
2013-06-05 04:58:00,43.3,41.7,30.14,North,0,0.0,0.0,94,0.00,CLR,,0.00,0.0,WeatherDisplay:10.37,2013-06-05 08:58:00,
2013-06-05 05:03:00,43.4,41.8,30.14,North,0,0.0,0.0,94,0.00,CLR,,0.00,0.0,WeatherDisplay:10.37,2013-06-05 09:03:00,
2013-06-05 05:08:00,43.4,41.8,30.14,North,0,0.0,0.0,94,0.00,CLR,,0.00,0.0,WeatherDisplay:10.37,2013-06-05 09:08:00,
2013-06-05 05:13:00,43.5,41.9,30.14,North,0,0.0,0.0,94,0.00,CLR,,0.00,0.0,WeatherDisplay:10.37,2013-06-05 09:13:00,
2013-06-05 05:18:00,43.5,41.9,30.14,North,0,0.0,0.0,94,0.00,CLR,,0.00,5.0,WeatherDisplay:10.37,2013-06-05 09:18:00,
2013-06-05 05:23:00,43.5,41.9,30.14,North,0,0.0,0.0,94,0.00,CLR,,0.00,7.0,WeatherDisplay:10.37,2013-06-05 09:23:00,
2013-06-05 05:28:00,43.5,41.9,30.14,North,0,0.0,0.0,94,0.00,CLR,,0.00,9.0,WeatherDisplay:10.37,2013-06-05 09:28:00,
2013-06-05 05:33:00,43.5,41.9,30.15,North,0,0.0,0.0,94,0.00,CLR,,0.00,11.0,WeatherDisplay:10.37,2013-06-05 09:33:00,
2013-06-05 05:38:00,43.5,41.9,30.14,North,0,0.0,0.0,94,0.00,CLR,,0.00,16.0,WeatherDisplay:10.37,2013-06-05 09:38:00,
2013-06-05 05:43:00,43.5,41.9,30.15,North,0,0.0,0.0,94,0.00,CLR,,0.00,21.0,WeatherDisplay:10.37,2013-06-05 09:43:00,
2013-06-05 05:48:00,43.5,41.9,30.15,North,0,0.0,0.0,94,0.00,CLR,,0.00,26.0,WeatherDisplay:10.37,2013-06-05 09:48:00,
2013-06-05 05:53:00,43.5,41.9,30.15,North,0,0.0,0.0,94,0.00,CLR,,0.00,30.0,WeatherDisplay:10.37,2013-06-05 09:53:00,
2013-06-05 05:58:00,43.5,41.9,30.15,North,0,0.0,0.0,94,0.00,CLR,,0.00,33.0,WeatherDisplay:10.37,2013-06-05 09:58:00,
2013-06-05 06:03:00,43.5,41.9,30.15,North,0,0.0,0.0,94,0.00,CLR,,0.00,35.0,WeatherDisplay:10.37,2013-06-05 10:03:00,
2013-06-05 06:08:00,43.6,42.0,30.15,North,0,0.0,0.0,94,0.00,CLR,,0.00,39.0,WeatherDisplay:10.37,2013-06-05 10:08:00,
2013-06-05 06:13:00,43.7,42.1,30.15,North,0,0.0,0.0,94,0.00,CLR,,0.00,46.0,WeatherDisplay:10.37,2013-06-05 10:13:00,
2013-06-05 06:18:00,43.9,42.6,30.16,North,0,0.0,0.0,95,0.00,CLR,,0.00,46.0,WeatherDisplay:10.37,2013-06-05 10:18:00,
2013-06-05 06:23:00,44.0,42.7,30.16,North,0,0.0,0.0,95,0.00,CLR,,0.00,46.0,WeatherDisplay:10.37,2013-06-05 10:23:00,
2013-06-05 06:28:00,44.1,42.8,30.16,North,0,0.0,0.0,95,0.00,CLR,,0.00,42.0,WeatherDisplay:10.37,2013-06-05 10:28:00,
2013-06-05 06:33:00,44.3,43.0,30.17,North,0,0.0,0.0,95,0.00,CLR,,0.00,37.0,WeatherDisplay:10.37,2013-06-05 10:33:00,
2013-06-05 06:38:00,44.4,43.1,30.17,North,0,0.0,0.0,95,0.00,CLR,,0.00,39.0,WeatherDisplay:10.37,2013-06-05 10:38:00,
2013-06-05 06:43:00,44.5,43.2,30.17,North,0,0.0,0.0,95,0.00,CLR,,0.00,42.0,WeatherDisplay:10.37,2013-06-05 10:43:00,
2013-06-05 06:48:00,44.7,43.4,30.17,North,0,0.0,0.0,95,0.00,CLR,,0.00,39.0,WeatherDisplay:10.37,2013-06-05 10:48:00,
2013-06-05 06:53:00,44.8,43.5,30.17,North,0,0.0,0.0,95,0.00,CLR,,0.00,37.0,WeatherDisplay:10.37,2013-06-05 10:53:00,
2013-06-05 06:58:00,45.0,43.7,30.17,North,0,0.0,0.0,95,0.00,CLR,,0.00,42.0,WeatherDisplay:10.37,2013-06-05 10:58:00,
2013-06-05 07:03:00,45.1,43.8,30.17,North,0,0.0,0.0,95,0.00,OVC,,0.00,47.0,WeatherDisplay:10.37,2013-06-05 11:03:00,
2013-06-05 07:08:00,45.1,43.8,30.17,North,0,0.0,0.0,95,0.00,OVC,,0.00,54.0,WeatherDisplay:10.37,2013-06-05 11:08:00,
2013-06-05 07:13:00,45.2,43.9,30.17,North,0,0.0,0.0,95,0.00,OVC,,0.00,54.0,WeatherDisplay:10.37,2013-06-05 11:13:00,
2013-06-05 07:18:00,45.4,44.1,30.17,North,0,0.0,0.0,95,0.00,OVC,,0.00,58.0,WeatherDisplay:10.37,2013-06-05 11:18:00,
2013-06-05 07:23:00,45.6,44.5,30.17,North,0,0.0,0.0,96,0.00,OVC,,0.00,53.0,WeatherDisplay:10.37,2013-06-05 11:23:00,
2013-06-05 07:28:00,45.9,44.8,30.18,North,0,0.0,0.0,96,0.00,OVC,,0.00,111.0,WeatherDisplay:10.37,2013-06-05 11:28:00,
2013-06-05 07:33:00,46.2,45.1,30.18,North,0,0.0,0.0,96,0.00,OVC,,0.00,70.0,WeatherDisplay:10.37,2013-06-05 11:33:00,
2013-06-05 07:38:00,46.5,45.4,30.18,North,0,0.0,0.0,96,0.00,OVC,,0.00,79.0,WeatherDisplay:10.37,2013-06-05 11:38:00,
2013-06-05 07:43:00,46.8,45.7,30.18,North,0,0.0,0.0,96,0.00,OVC,,0.00,58.0,WeatherDisplay:10.37,2013-06-05 11:43:00,
2013-06-05 07:48:00,47.2,46.1,30.18,North,0,0.0,0.0,96,0.00,OVC,,0.00,56.0,WeatherDisplay:10.37,2013-06-05 11:48:00,
2013-06-05 07:53:00,47.7,46.6,30.18,North,0,0.0,0.0,96,0.00,OVC,,0.00,69.0,WeatherDisplay:10.37,2013-06-05 11:53:00,
2013-06-05 07:58:00,48.0,46.9,30.18,North,0,0.0,0.0,96,0.00,OVC,,0.00,60.0,WeatherDisplay:10.37,2013-06-05 11:58:00,
2013-06-05 08:03:00,48.3,47.2,30.18,North,0,0.0,0.0,96,0.00,OVC,,0.00,60.0,WeatherDisplay:10.37,2013-06-05 12:03:00,
2013-06-05 08:08:00,48.5,47.4,30.18,North,0,0.0,0.0,96,0.00,OVC,,0.00,130.0,WeatherDisplay:10.37,2013-06-05 12:08:00,
2013-06-05 08:13:00,48.9,47.8,30.18,North,0,0.0,0.0,96,0.00,OVC,,0.00,445.0,WeatherDisplay:10.37,2013-06-05 12:13:00,
2013-06-05 08:18:00,49.3,47.9,30.19,North,0,0.0,0.0,95,0.00,OVC,,0.00,466.0,WeatherDisplay:10.37,2013-06-05 12:18:00,
2013-06-05 08:23:00,49.8,48.4,30.19,North,0,0.0,0.0,95,0.00,OVC,,0.00,499.0,WeatherDisplay:10.37,2013-06-05 12:23:00,
2013-06-05 08:28:00,51.0,48.8,30.19,North,0,0.0,0.0,92,0.00,OVC,,0.00,522.0,WeatherDisplay:10.37,2013-06-05 12:28:00,
2013-06-05 08:33:00,52.6,48.8,30.19,North,0,0.0,0.0,87,0.00,OVC,,0.00,540.0,WeatherDisplay:10.37,2013-06-05 12:33:00,
2013-06-05 08:38:00,53.8,49.4,30.19,North,0,0.0,0.0,85,0.00,OVC,,0.00,554.0,WeatherDisplay:10.37,2013-06-05 12:38:00,
2013-06-05 08:43:00,54.9,49.8,30.19,North,0,0.0,0.0,83,0.00,OVC,,0.00,568.0,WeatherDisplay:10.37,2013-06-05 12:43:00,
2013-06-05 08:48:00,55.8,48.3,30.19,North,0,0.0,0.0,76,0.00,OVC,,0.00,584.0,WeatherDisplay:10.37,2013-06-05 12:48:00,
2013-06-05 08:53:00,56.7,49.2,30.19,North,0,0.0,0.0,76,0.00,OVC,,0.00,598.0,WeatherDisplay:10.37,2013-06-05 12:53:00,
2013-06-05 08:58:00,57.6,48.6,30.19,North,0,0.0,0.0,72,0.00,OVC,,0.00,605.0,WeatherDisplay:10.37,2013-06-05 12:58:00,
2013-06-05 09:03:00,58.4,47.9,30.19,North,0,0.0,0.0,68,0.00,OVC,,0.00,629.0,WeatherDisplay:10.37,2013-06-05 13:03:00,
2013-06-05 09:08:00,59.0,48.1,30.19,North,0,0.0,0.0,67,0.00,OVC,,0.00,643.0,WeatherDisplay:10.37,2013-06-05 13:08:00,
2013-06-05 09:13:00,59.2,48.2,30.20,North,0,0.0,0.0,67,0.00,OVC,,0.00,657.0,WeatherDisplay:10.37,2013-06-05 13:13:00,
2013-06-05 09:18:00,60.0,48.2,30.19,North,0,0.0,0.0,65,0.00,OVC,,0.00,670.0,WeatherDisplay:10.37,2013-06-05 13:18:00,
2013-06-05 09:23:00,60.4,48.2,30.19,North,0,0.0,0.0,64,0.00,OVC,,0.00,684.0,WeatherDisplay:10.37,2013-06-05 13:23:00,
2013-06-05 09:28:00,60.8,47.7,30.19,North,0,0.0,0.0,62,0.00,OVC,,0.00,698.0,WeatherDisplay:10.37,2013-06-05 13:28:00,
2013-06-05 09:33:00,61.3,48.2,30.19,North,0,0.0,0.0,62,0.00,OVC,,0.00,710.0,WeatherDisplay:10.37,2013-06-05 13:33:00,
2013-06-05 09:38:00,61.7,48.1,30.19,North,0,0.0,0.0,61,0.00,OVC,,0.00,722.0,WeatherDisplay:10.37,2013-06-05 13:38:00,
2013-06-05 09:43:00,61.7,48.1,30.18,North,0,0.0,0.0,61,0.00,OVC,,0.00,737.0,WeatherDisplay:10.37,2013-06-05 13:43:00,
2013-06-05 09:48:00,61.9,49.2,30.18,North,0,0.0,0.0,63,0.00,OVC,,0.00,752.0,WeatherDisplay:10.37,2013-06-05 13:48:00,
2013-06-05 09:53:00,62.3,49.1,30.18,North,0,0.0,0.0,62,0.00,OVC,,0.00,765.0,WeatherDisplay:10.37,2013-06-05 13:53:00,
2013-06-05 09:58:00,62.7,49.1,30.18,North,0,0.0,0.0,61,0.00,OVC,,0.00,756.0,WeatherDisplay:10.37,2013-06-05 13:58:00,
2013-06-05 10:03:00,63.1,49.4,30.18,North,0,0.0,0.0,61,0.00,OVC,,0.00,791.0,WeatherDisplay:10.37,2013-06-05 14:03:00,
2013-06-05 10:08:00,63.5,49.8,30.18,North,0,0.0,0.0,61,0.00,OVC,,0.00,800.0,WeatherDisplay:10.37,2013-06-05 14:08:00,
2013-06-05 10:13:00,64.1,49.9,30.18,North,0,0.0,0.0,60,0.00,CLR,,0.00,810.0,WeatherDisplay:10.37,2013-06-05 14:13:00,
2013-06-05 10:18:00,64.4,49.8,30.18,North,0,0.0,0.0,59,0.00,CLR,,0.00,819.0,WeatherDisplay:10.37,2013-06-05 14:18:00,
2013-06-05 10:23:00,64.6,49.5,30.18,North,0,0.0,0.0,58,0.00,CLR,,0.00,830.0,WeatherDisplay:10.37,2013-06-05 14:23:00,
2013-06-05 10:28:00,65.0,48.9,30.18,North,0,0.0,0.0,56,0.00,CLR,,0.00,842.0,WeatherDisplay:10.37,2013-06-05 14:28:00,
2013-06-05 10:33:00,65.0,49.9,30.18,North,0,0.0,0.0,58,0.00,CLR,,0.00,853.0,WeatherDisplay:10.37,2013-06-05 14:33:00,
2013-06-05 10:38:00,65.4,51.1,30.18,North,0,0.0,0.0,60,0.00,CLR,,0.00,858.0,WeatherDisplay:10.37,2013-06-05 14:38:00,
2013-06-05 10:43:00,65.9,50.2,30.18,North,0,0.0,0.0,57,0.00,CLR,,0.00,877.0,WeatherDisplay:10.37,2013-06-05 14:43:00,
2013-06-05 10:48:00,66.0,49.8,30.18,North,0,0.0,0.0,56,0.00,CLR,,0.00,907.0,WeatherDisplay:10.37,2013-06-05 14:48:00,
2013-06-05 10:53:00,66.0,48.9,30.17,North,0,0.0,0.0,54,0.00,CLR,,0.00,933.0,WeatherDisplay:10.37,2013-06-05 14:53:00,
2013-06-05 10:58:00,66.0,48.9,30.17,North,0,0.0,0.0,54,0.00,CLR,,0.00,977.0,WeatherDisplay:10.37,2013-06-05 14:58:00,
2013-06-05 11:03:00,65.9,49.3,30.17,North,0,0.0,0.0,55,0.00,CLR,,0.00,1021.0,WeatherDisplay:10.37,2013-06-05 15:03:00,
2013-06-05 11:08:00,66.1,51.8,30.17,North,0,0.0,0.0,60,0.00,CLR,,0.00,1005.0,WeatherDisplay:10.37,2013-06-05 15:08:00,
2013-06-05 11:13:00,66.5,50.3,30.17,SW,228,10.4,10.4,56,0.00,CLR,,0.00,977.0,WeatherDisplay:10.37,2013-06-05 15:13:00,
2013-06-05 11:18:00,67.0,49.3,30.17,WSW,254,5.8,5.8,53,0.00,CLR,,0.00,954.0,WeatherDisplay:10.37,2013-06-05 15:18:00,
2013-06-05 11:23:00,67.2,49.0,30.17,SW,218,4.6,4.6,52,0.00,CLR,,0.00,986.0,WeatherDisplay:10.37,2013-06-05 15:23:00,
2013-06-05 11:28:00,67.3,48.5,30.17,NW,309,4.6,4.6,51,0.00,CLR,,0.00,1056.0,WeatherDisplay:10.37,2013-06-05 15:28:00,
2013-06-05 11:33:00,67.7,51.4,30.17,SW,222,4.6,4.6,56,0.00,CLR,,0.00,1011.0,WeatherDisplay:10.37,2013-06-05 15:33:00,
2013-06-05 11:38:00,68.1,49.3,30.17,NNW,333,5.0,5.0,51,0.00,CLR,,0.00,976.0,WeatherDisplay:10.37,2013-06-05 15:38:00,
2013-06-05 11:43:00,68.2,50.9,30.17,SSW,205,3.0,3.0,54,0.00,CLR,,0.00,1002.0,WeatherDisplay:10.37,2013-06-05 15:43:00,
2013-06-05 11:48:00,68.8,49.9,30.17,SW,227,4.6,4.6,51,0.00,CLR,,0.00,1007.0,WeatherDisplay:10.37,2013-06-05 15:48:00,
2013-06-05 11:53:00,69.3,49.3,30.16,West,270,9.2,9.2,49,0.00,CLR,,0.00,972.0,WeatherDisplay:10.37,2013-06-05 15:53:00,
2013-06-05 11:58:00,69.3,51.4,30.16,SSW,205,1.2,1.2,53,0.00,CLR,,0.00,1000.0,WeatherDisplay:10.37,2013-06-05 15:58:00,
2013-06-05 12:03:00,69.7,49.1,30.16,NNE,17,5.8,5.8,48,0.00,CLR,,0.00,1042.0,WeatherDisplay:10.37,2013-06-05 16:03:00,
2013-06-05 12:08:00,69.7,49.1,30.16,West,260,4.6,4.6,48,0.00,CLR,,0.00,1058.0,WeatherDisplay:10.37,2013-06-05 16:08:00,
2013-06-05 12:13:00,69.7,49.7,30.16,WSW,238,3.5,0.0,49,0.00,SCT,,0.00,211.0,WeatherDisplay:10.37,2013-06-05 16:13:00,
2013-06-05 12:18:00,69.8,51.9,30.16,SW,233,9.2,9.2,53,0.00,CLR,,0.00,1093.0,WeatherDisplay:10.37,2013-06-05 16:18:00,
2013-06-05 12:23:00,69.9,50.9,30.16,SW,236,4.0,4.0,51,0.00,CLR,,0.00,728.0,WeatherDisplay:10.37,2013-06-05 16:23:00,
2013-06-05 12:28:00,70.4,51.9,30.15,SSE,157,6.9,6.9,52,0.00,CLR,,0.00,1099.0,WeatherDisplay:10.37,2013-06-05 16:28:00,
2013-06-05 12:33:00,70.9,51.3,30.15,SW,214,6.9,6.9,50,0.00,CLR,,0.00,1078.0,WeatherDisplay:10.37,2013-06-05 16:33:00,
2013-06-05 12:38:00,70.7,48.3,30.15,ENE,73,4.6,4.6,45,0.00,CLR,,0.00,1116.0,WeatherDisplay:10.37,2013-06-05 16:38:00,
2013-06-05 12:43:00,70.3,50.8,30.16,WNW,296,3.5,3.5,50,0.00,CLR,,0.00,1129.0,WeatherDisplay:10.37,2013-06-05 16:43:00,
2013-06-05 12:48:00,70.4,49.8,30.15,West,268,3.5,3.5,48,0.00,CLR,,0.00,1071.0,WeatherDisplay:10.37,2013-06-05 16:48:00,
2013-06-05 12:53:00,70.5,54.5,30.15,WNW,294,2.3,2.3,57,0.00,CLR,,0.00,1041.0,WeatherDisplay:10.37,2013-06-05 16:53:00,
2013-06-05 12:58:00,71.1,52.0,30.15,SSW,198,4.6,4.6,51,0.00,CLR,,0.00,1016.0,WeatherDisplay:10.37,2013-06-05 16:58:00,
2013-06-05 13:03:00,71.5,52.9,30.15,SW,227,4.0,4.0,52,0.00,CLR,,0.00,1018.0,WeatherDisplay:10.37,2013-06-05 17:03:00,
2013-06-05 13:08:00,71.7,51.5,30.15,WSW,255,4.6,4.6,49,0.00,CLR,,0.00,1051.0,WeatherDisplay:10.37,2013-06-05 17:08:00,
2013-06-05 13:13:00,71.4,49.5,30.14,WNW,288,11.5,11.5,46,0.00,CLR,,0.00,1035.0,WeatherDisplay:10.37,2013-06-05 17:13:00,
2013-06-05 13:18:00,71.1,51.5,30.14,WSW,253,8.1,8.1,50,0.00,CLR,,0.00,998.0,WeatherDisplay:10.37,2013-06-05 17:18:00,
2013-06-05 13:23:00,71.4,50.7,30.14,SSE,156,5.0,5.0,48,0.00,CLR,,0.00,983.0,WeatherDisplay:10.37,2013-06-05 17:23:00,
2013-06-05 13:28:00,71.9,52.2,30.14,WNW,282,4.6,4.7,50,0.00,CLR,,0.00,979.0,WeatherDisplay:10.37,2013-06-05 17:28:00,
2013-06-05 13:33:00,72.2,50.8,30.14,WNW,297,3.5,3.5,47,0.00,CLR,,0.00,997.0,WeatherDisplay:10.37,2013-06-05 17:33:00,
2013-06-05 13:38:00,72.3,49.8,30.14,WNW,285,2.0,2.0,45,0.00,CLR,,0.00,983.0,WeatherDisplay:10.37,2013-06-05 17:38:00,
2013-06-05 13:43:00,72.2,49.7,30.14,NNW,339,3.5,3.5,45,0.00,CLR,,0.00,990.0,WeatherDisplay:10.37,2013-06-05 17:43:00,
2013-06-05 13:48:00,72.2,49.7,30.14,North,360,1.2,1.2,45,0.00,CLR,,0.00,1049.0,WeatherDisplay:10.37,2013-06-05 17:48:00,
2013-06-05 13:53:00,72.6,51.2,30.14,SW,221,5.0,5.0,47,0.00,CLR,,0.00,997.0,WeatherDisplay:10.37,2013-06-05 17:53:00,
2013-06-05 13:58:00,72.6,52.9,30.14,SSW,203,6.9,6.9,50,0.00,CLR,,0.00,1004.0,WeatherDisplay:10.37,2013-06-05 17:58:00,
2013-06-05 14:03:00,72.8,50.8,30.13,WSW,243,3.5,3.5,46,0.00,CLR,,0.00,962.0,WeatherDisplay:10.37,2013-06-05 18:03:00,
2013-06-05 14:08:00,73.1,51.1,30.12,WNW,297,2.0,2.0,46,0.00,CLR,,0.00,942.0,WeatherDisplay:10.37,2013-06-05 18:08:00,
2013-06-05 14:13:00,73.2,49.4,30.12,NW,323,3.5,3.5,43,0.00,CLR,,0.00,935.0,WeatherDisplay:10.37,2013-06-05 18:13:00,
2013-06-05 14:18:00,73.4,51.9,30.12,SW,234,4.6,4.6,47,0.00,CLR,,0.00,956.0,WeatherDisplay:10.37,2013-06-05 18:18:00,
2013-06-05 14:23:00,73.6,50.9,30.12,NNW,333,2.3,2.3,45,0.00,CLR,,0.00,962.0,WeatherDisplay:10.37,2013-06-05 18:23:00,
2013-06-05 14:28:00,74.0,54.2,30.12,West,267,5.8,5.8,50,0.00,CLR,,0.00,905.0,WeatherDisplay:10.37,2013-06-05 18:28:00,
2013-06-05 14:33:00,74.3,54.5,30.12,WSW,257,2.3,0.0,50,0.00,CLR,,0.00,1044.0,WeatherDisplay:10.37,2013-06-05 18:33:00,
2013-06-05 14:38:00,74.3,50.4,30.12,WSW,250,5.8,5.8,43,0.00,CLR,,0.00,842.0,WeatherDisplay:10.37,2013-06-05 18:38:00,
2013-06-05 14:43:00,74.3,52.2,30.12,SE,136,10.4,10.4,46,0.00,CLR,,0.00,810.0,WeatherDisplay:10.37,2013-06-05 18:43:00,
2013-06-05 14:48:00,74.3,50.4,30.12,NNE,13,5.0,5.0,43,0.00,CLR,,0.00,167.0,WeatherDisplay:10.37,2013-06-05 18:48:00,
2013-06-05 14:53:00,73.8,49.9,30.12,NW,315,3.5,0.0,43,0.00,BKN,,0.00,241.0,WeatherDisplay:10.37,2013-06-05 18:53:00,
2013-06-05 14:58:00,73.1,48.6,30.12,NE,37,1.2,1.2,42,0.00,SCT,,0.00,425.0,WeatherDisplay:10.37,2013-06-05 18:58:00,
2013-06-05 15:03:00,72.5,51.1,30.11,SSW,211,4.6,4.6,47,0.00,SCT,,0.00,519.0,WeatherDisplay:10.37,2013-06-05 19:03:00,
2013-06-05 15:08:00,72.1,49.0,30.11,SSW,209,5.8,5.8,44,0.00,SCT,,0.00,559.0,WeatherDisplay:10.37,2013-06-05 19:08:00,
2013-06-05 15:13:00,72.0,50.1,30.11,SW,236,1.2,1.2,46,0.00,SCT,,0.00,536.0,WeatherDisplay:10.37,2013-06-05 19:13:00,
2013-06-05 15:18:00,72.1,52.4,30.11,WSW,244,0.0,0.2,50,0.00,SCT,,0.00,582.0,WeatherDisplay:10.37,2013-06-05 19:18:00,
2013-06-05 15:23:00,72.2,49.7,30.11,South,184,10.4,10.4,45,0.00,SCT,,0.00,501.0,WeatherDisplay:10.37,2013-06-05 19:23:00,
2013-06-05 15:28:00,72.2,49.7,30.10,SSW,205,1.2,1.2,45,0.00,BKN,,0.00,457.0,WeatherDisplay:10.37,2013-06-05 19:28:00,
2013-06-05 15:33:00,72.1,51.3,30.10,WSW,240,6.9,6.9,48,0.00,SCT,,0.00,522.0,WeatherDisplay:10.37,2013-06-05 19:33:00,
2013-06-05 15:38:00,72.2,52.0,30.10,WSW,244,1.2,1.2,49,0.00,SCT,,0.00,526.0,WeatherDisplay:10.37,2013-06-05 19:38:00,
2013-06-05 15:43:00,72.4,50.4,30.10,SSW,201,4.6,4.6,46,0.00,BKN,,0.00,373.0,WeatherDisplay:10.37,2013-06-05 19:43:00,
2013-06-05 15:48:00,72.3,49.8,30.10,West,274,2.3,2.3,45,0.00,BKN,,0.00,304.0,WeatherDisplay:10.37,2013-06-05 19:48:00,
2013-06-05 15:53:00,72.2,50.3,30.10,SSW,199,3.0,3.0,46,0.00,BKN,,0.00,403.0,WeatherDisplay:10.37,2013-06-05 19:53:00,
2013-06-05 15:58:00,72.0,49.5,30.10,WNW,285,3.5,3.5,45,0.00,BKN,,0.00,371.0,WeatherDisplay:10.37,2013-06-05 19:58:00,
2013-06-05 16:03:00,71.7,48.0,30.10,WNW,294,0.0,0.2,43,0.00,BKN,,0.00,364.0,WeatherDisplay:10.37,2013-06-05 20:03:00,
2013-06-05 16:08:00,71.7,52.1,30.09,West,281,0.0,0.0,50,0.00,BKN,,0.00,336.0,WeatherDisplay:10.37,2013-06-05 20:08:00,
2013-06-05 16:13:00,71.5,47.8,30.09,West,280,0.0,0.0,43,0.00,BKN,,0.00,285.0,WeatherDisplay:10.37,2013-06-05 20:13:00,
2013-06-05 16:18:00,71.4,50.7,30.09,SW,234,3.5,3.5,48,0.00,BKN,,0.00,250.0,WeatherDisplay:10.37,2013-06-05 20:18:00,
2013-06-05 16:23:00,71.3,50.6,30.09,SW,221,2.3,2.3,48,0.00,BKN,,0.00,278.0,WeatherDisplay:10.37,2013-06-05 20:23:00,
2013-06-05 16:28:00,71.1,49.8,30.09,WSW,246,2.3,2.3,47,0.00,BKN,,0.00,241.0,WeatherDisplay:10.37,2013-06-05 20:28:00,
2013-06-05 16:33:00,71.0,51.4,30.09,WSW,244,0.0,0.0,50,0.00,BKN,,0.00,221.0,WeatherDisplay:10.37,2013-06-05 20:33:00,
2013-06-05 16:38:00,70.8,51.2,30.09,WNW,282,2.3,0.0,50,0.00,BKN,,0.00,237.0,WeatherDisplay:10.37,2013-06-05 20:38:00,
2013-06-05 16:43:00,70.7,49.5,30.09,NW,325,1.2,1.3,47,0.00,BKN,,0.00,237.0,WeatherDisplay:10.37,2013-06-05 20:43:00,
2013-06-05 16:48:00,70.5,49.9,30.09,WSW,237,1.2,1.2,48,0.00,BKN,,0.00,227.0,WeatherDisplay:10.37,2013-06-05 20:48:00,
2013-06-05 16:53:00,70.4,50.3,30.09,SW,220,4.0,4.0,49,0.00,BKN,,0.00,211.0,WeatherDisplay:10.37,2013-06-05 20:53:00,
2013-06-05 16:58:00,70.3,51.3,30.09,WSW,240,2.3,0.0,51,0.00,BKN,,0.00,207.0,WeatherDisplay:10.37,2013-06-05 20:58:00,
2013-06-05 17:03:00,70.2,50.1,30.09,SW,221,1.2,0.0,49,0.00,BKN,,0.00,209.0,WeatherDisplay:10.37,2013-06-05 21:03:00,
2013-06-05 17:08:00,70.1,49.5,30.09,SW,232,2.0,2.0,48,0.00,BKN,,0.00,193.0,WeatherDisplay:10.37,2013-06-05 21:08:00,
2013-06-05 17:13:00,70.0,52.6,30.08,WSW,253,0.0,0.0,54,0.00,BKN,,0.00,190.0,WeatherDisplay:10.37,2013-06-05 21:13:00,
2013-06-05 17:18:00,70.0,53.1,30.09,West,269,1.2,1.2,55,0.00,BKN,,0.00,181.0,WeatherDisplay:10.37,2013-06-05 21:18:00,
2013-06-05 17:23:00,69.9,52.0,30.08,SW,225,8.0,8.0,53,0.00,BKN,,0.00,156.0,WeatherDisplay:10.37,2013-06-05 21:23:00,
2013-06-05 17:28:00,69.8,51.9,30.08,SSW,207,5.0,5.0,53,0.00,BKN,,0.00,111.0,WeatherDisplay:10.37,2013-06-05 21:28:00,
2013-06-05 17:33:00,69.6,50.7,30.08,South,178,2.3,2.3,51,0.00,BKN,,0.00,123.0,WeatherDisplay:10.37,2013-06-05 21:33:00,
2013-06-05 17:38:00,69.5,50.6,30.08,SSE,150,4.6,4.6,51,0.00,BKN,,0.00,116.0,WeatherDisplay:10.37,2013-06-05 21:38:00,
2013-06-05 17:43:00,69.3,50.9,30.09,SSW,202,4.0,4.0,52,0.00,BKN,,0.00,114.0,WeatherDisplay:10.37,2013-06-05 21:43:00,
2013-06-05 17:48:00,69.1,50.7,30.09,WNW,300,3.5,3.5,52,0.00,OVC,,0.00,83.0,WeatherDisplay:10.37,2013-06-05 21:48:00,
2013-06-05 17:53:00,69.0,51.7,30.09,SW,214,1.2,0.0,54,0.00,BKN,,0.00,88.0,WeatherDisplay:10.37,2013-06-05 21:53:00,
2013-06-05 17:58:00,68.8,51.0,30.09,WSW,246,3.5,3.5,53,0.00,OVC,,0.00,77.0,WeatherDisplay:10.37,2013-06-05 21:58:00,
2013-06-05 18:03:00,68.6,49.2,30.09,WSW,242,2.3,2.3,50,0.00,OVC,,0.00,69.0,WeatherDisplay:10.37,2013-06-05 22:03:00,
2013-06-05 18:08:00,68.5,50.7,30.09,SSW,204,4.6,4.6,53,0.00,OVC,,0.00,67.0,WeatherDisplay:10.37,2013-06-05 22:08:00,
2013-06-05 18:13:00,68.3,51.5,30.09,South,182,2.3,0.0,55,0.00,OVC,,0.00,70.0,WeatherDisplay:10.37,2013-06-05 22:13:00,
2013-06-05 18:18:00,68.1,49.8,30.09,NW,317,5.8,0.0,52,0.00,OVC,,0.00,74.0,WeatherDisplay:10.37,2013-06-05 22:18:00,
2013-06-05 18:23:00,68.0,51.2,30.09,SSW,207,6.9,6.9,55,0.00,OVC,,0.00,54.0,WeatherDisplay:10.37,2013-06-05 22:23:00,
2013-06-05 18:28:00,67.9,51.1,30.09,WSW,244,5.0,5.0,55,0.00,OVC,,0.00,54.0,WeatherDisplay:10.37,2013-06-05 22:28:00,
2013-06-05 18:33:00,67.7,50.5,30.10,SW,236,4.6,4.6,54,0.00,OVC,,0.00,56.0,WeatherDisplay:10.37,2013-06-05 22:33:00,
2013-06-05 18:38:00,67.6,51.3,30.10,WSW,246,4.6,4.6,56,0.00,OVC,,0.00,49.0,WeatherDisplay:10.37,2013-06-05 22:38:00,
2013-06-05 18:43:00,67.5,50.8,30.10,SW,215,3.5,3.5,55,0.00,OVC,,0.00,47.0,WeatherDisplay:10.37,2013-06-05 22:43:00,
2013-06-05 18:48:00,67.3,51.5,30.10,SW,234,2.3,2.3,57,0.00,OVC,,0.00,47.0,WeatherDisplay:10.37,2013-06-05 22:48:00,
2013-06-05 18:53:00,67.2,51.0,30.10,SW,230,4.0,4.0,56,0.00,OVC,,0.00,49.0,WeatherDisplay:10.37,2013-06-05 22:53:00,
2013-06-05 18:58:00,67.1,50.9,30.10,WSW,244,2.3,2.3,56,0.00,OVC,,0.00,42.0,WeatherDisplay:10.37,2013-06-05 22:58:00,
2013-06-05 19:03:00,66.9,51.2,30.10,SW,229,3.5,0.0,57,0.00,CLR,,0.00,40.0,WeatherDisplay:10.37,2013-06-05 23:03:00,
2013-06-05 19:08:00,66.7,51.0,30.10,WSW,246,1.2,1.2,57,0.00,CLR,,0.00,39.0,WeatherDisplay:10.37,2013-06-05 23:08:00,
2013-06-05 19:13:00,66.6,51.4,30.10,WSW,240,4.6,4.6,58,0.00,CLR,,0.00,33.0,WeatherDisplay:10.37,2013-06-05 23:13:00,
2013-06-05 19:18:00,66.4,51.2,30.10,SW,214,6.0,6.0,58,0.00,CLR,,0.00,26.0,WeatherDisplay:10.37,2013-06-05 23:18:00,
2013-06-05 19:23:00,66.2,51.0,30.11,SW,216,1.0,1.0,58,0.00,CLR,,0.00,21.0,WeatherDisplay:10.37,2013-06-05 23:23:00,
2013-06-05 19:28:00,66.0,51.3,30.11,SW,219,0.0,0.0,59,0.00,CLR,,0.00,19.0,WeatherDisplay:10.37,2013-06-05 23:28:00,
2013-06-05 19:33:00,65.8,51.1,30.10,SW,219,0.0,0.0,59,0.00,CLR,,0.00,23.0,WeatherDisplay:10.37,2013-06-05 23:33:00,
2013-06-05 19:39:00,65.5,51.2,30.10,NNE,16,0.0,0.0,60,0.00,CLR,,0.00,19.0,WeatherDisplay:10.37,2013-06-05 23:39:00,
2013-06-05 19:44:00,65.2,51.8,30.11,North,0,0.0,0.0,62,0.00,CLR,,0.00,14.0,WeatherDisplay:10.37,2013-06-05 23:44:00,
2013-06-05 19:49:00,65.0,52.1,30.11,North,0,0.0,0.0,63,0.00,CLR,,0.00,12.0,WeatherDisplay:10.37,2013-06-05 23:49:00,
2013-06-05 19:54:00,64.8,51.9,30.10,North,0,0.0,0.0,63,0.00,CLR,,0.00,11.0,WeatherDisplay:10.37,2013-06-05 23:54:00,
2013-06-05 19:59:00,64.5,52.0,30.10,North,0,0.0,0.0,64,0.00,CLR,,0.00,9.0,WeatherDisplay:10.37,2013-06-05 23:59:00,
2013-06-05 20:04:00,64.2,51.8,30.10,North,0,0.0,0.0,64,0.00,CLR,,0.00,7.0,WeatherDisplay:10.37,2013-06-06 00:04:00,
2013-06-05 20:09:00,63.8,51.8,30.10,North,0,0.0,0.0,65,0.00,CLR,,0.00,5.0,WeatherDisplay:10.37,2013-06-06 00:09:00,
2013-06-05 20:14:00,63.3,51.7,30.10,North,0,0.0,0.0,66,0.00,CLR,,0.00,0.0,WeatherDisplay:10.37,2013-06-06 00:14:00,
2013-06-05 20:19:00,62.8,51.3,30.10,North,0,0.0,0.0,66,0.00,CLR,,0.00,0.0,WeatherDisplay:10.37,2013-06-06 00:19:00,
2013-06-05 20:24:00,62.4,51.3,30.10,North,0,0.0,0.0,67,0.00,CLR,,0.00,0.0,WeatherDisplay:10.37,2013-06-06 00:24:00,
2013-06-05 20:29:00,62.0,51.3,30.10,North,0,0.0,0.0,68,0.00,CLR,,0.00,0.0,WeatherDisplay:10.37,2013-06-06 00:29:00,
2013-06-05 20:34:00,61.5,50.8,30.11,North,0,0.0,0.0,68,0.00,CLR,,0.00,0.0,WeatherDisplay:10.37,2013-06-06 00:34:00,
2013-06-05 20:39:00,61.0,50.8,30.11,North,0,0.0,0.0,69,0.00,CLR,,0.00,0.0,WeatherDisplay:10.37,2013-06-06 00:39:00,
2013-06-05 20:44:00,60.5,50.3,30.11,North,0,0.0,0.0,69,0.00,CLR,,0.00,0.0,WeatherDisplay:10.37,2013-06-06 00:44:00,
2013-06-05 20:49:00,60.0,50.2,30.11,North,0,0.0,0.0,70,0.00,CLR,,0.00,0.0,WeatherDisplay:10.37,2013-06-06 00:49:00,
2013-06-05 20:54:00,59.6,50.2,30.11,North,0,0.0,0.0,71,0.00,CLR,,0.00,0.0,WeatherDisplay:10.37,2013-06-06 00:54:00,
2013-06-05 20:59:00,59.1,49.7,30.11,North,0,0.0,0.0,71,0.00,CLR,,0.00,0.0,WeatherDisplay:10.37,2013-06-06 00:59:00,
2013-06-05 21:04:00,59.0,50.0,30.11,North,0,0.0,0.0,72,0.00,CLR,,0.00,0.0,WeatherDisplay:10.37,2013-06-06 01:04:00,
2013-06-05 21:09:00,58.5,49.5,30.11,North,0,0.0,0.0,72,0.00,CLR,,0.00,0.0,WeatherDisplay:10.37,2013-06-06 01:09:00,
2013-06-05 21:14:00,58.1,49.9,30.12,North,0,0.0,0.0,74,0.00,CLR,,0.00,0.0,WeatherDisplay:10.37,2013-06-06 01:14:00,
2013-06-05 21:19:00,57.7,49.5,30.12,North,0,0.0,0.0,74,0.00,CLR,,0.00,0.0,WeatherDisplay:10.37,2013-06-06 01:19:00,
2013-06-05 21:24:00,57.3,50.1,30.12,North,0,0.0,0.0,77,0.00,CLR,,0.00,0.0,WeatherDisplay:10.37,2013-06-06 01:24:00,
2013-06-05 21:29:00,56.9,49.4,30.12,North,0,0.0,0.0,76,0.00,CLR,,0.00,0.0,WeatherDisplay:10.37,2013-06-06 01:29:00,
2013-06-05 21:34:00,56.4,49.6,30.12,North,0,0.0,0.0,78,0.00,CLR,,0.00,0.0,WeatherDisplay:10.37,2013-06-06 01:34:00,
2013-06-05 21:39:00,56.1,49.3,30.12,North,0,0.0,0.0,78,0.00,CLR,,0.00,0.0,WeatherDisplay:10.37,2013-06-06 01:39:00,
2013-06-05 21:44:00,55.8,49.4,30.13,North,0,0.0,0.0,79,0.00,CLR,,0.00,0.0,WeatherDisplay:10.37,2013-06-06 01:44:00,
2013-06-05 21:49:00,55.5,49.1,30.13,North,0,0.0,0.0,79,0.00,CLR,,0.00,0.0,WeatherDisplay:10.37,2013-06-06 01:49:00,
2013-06-05 21:54:00,55.2,49.1,30.14,North,0,0.0,0.0,80,0.00,CLR,,0.00,0.0,WeatherDisplay:10.37,2013-06-06 01:54:00,
2013-06-05 21:59:00,55.0,48.9,30.13,North,0,0.0,0.0,80,0.00,CLR,,0.00,0.0,WeatherDisplay:10.37,2013-06-06 01:59:00,
2013-06-05 22:04:00,54.7,48.6,30.14,North,0,0.0,0.0,80,0.00,CLR,,0.00,0.0,WeatherDisplay:10.37,2013-06-06 02:04:00,
2013-06-05 22:09:00,54.5,48.8,30.14,North,0,0.0,0.0,81,0.00,CLR,,0.00,0.0,WeatherDisplay:10.37,2013-06-06 02:09:00,
2013-06-05 22:14:00,54.3,48.6,30.13,North,0,0.0,0.0,81,0.00,CLR,,0.00,0.0,WeatherDisplay:10.37,2013-06-06 02:14:00,
2013-06-05 22:19:00,54.1,48.7,30.14,North,0,0.0,0.0,82,0.00,CLR,,0.00,0.0,WeatherDisplay:10.37,2013-06-06 02:19:00,
2013-06-05 22:24:00,53.9,48.5,30.14,North,0,0.0,0.0,82,0.00,CLR,,0.00,0.0,WeatherDisplay:10.37,2013-06-06 02:24:00,
2013-06-05 22:29:00,53.7,48.7,30.14,North,0,0.0,0.0,83,0.00,CLR,,0.00,0.0,WeatherDisplay:10.37,2013-06-06 02:29:00,
2013-06-05 22:34:00,53.4,48.7,30.14,North,0,0.0,0.0,84,0.00,CLR,,0.00,0.0,WeatherDisplay:10.37,2013-06-06 02:34:00,
2013-06-05 22:39:00,53.2,48.5,30.14,North,0,0.0,0.0,84,0.00,CLR,,0.00,0.0,WeatherDisplay:10.37,2013-06-06 02:39:00,
2013-06-05 22:44:00,53.1,48.4,30.14,North,0,0.0,0.0,84,0.00,CLR,,0.00,0.0,WeatherDisplay:10.37,2013-06-06 02:44:00,
2013-06-05 22:49:00,52.9,48.5,30.14,North,0,0.0,0.0,85,0.00,CLR,,0.00,0.0,WeatherDisplay:10.37,2013-06-06 02:49:00,
2013-06-05 22:54:00,52.8,48.4,30.15,North,0,0.0,0.0,85,0.00,CLR,,0.00,0.0,WeatherDisplay:10.37,2013-06-06 02:54:00,
2013-06-05 22:59:00,52.7,48.6,30.14,North,0,0.0,0.0,86,0.00,CLR,,0.00,0.0,WeatherDisplay:10.37,2013-06-06 02:59:00,
2013-06-05 23:04:00,52.7,48.6,30.15,North,0,0.0,0.0,86,0.00,CLR,,0.00,0.0,WeatherDisplay:10.37,2013-06-06 03:04:00,
2013-06-05 23:09:00,52.6,48.5,30.14,North,0,0.0,0.0,86,0.00,CLR,,0.00,0.0,WeatherDisplay:10.37,2013-06-06 03:09:00,
2013-06-05 23:14:00,52.5,48.4,30.15,North,0,0.0,0.0,86,0.00,CLR,,0.00,0.0,WeatherDisplay:10.37,2013-06-06 03:14:00,
2013-06-05 23:19:00,52.4,48.6,30.15,North,0,0.0,0.0,87,0.00,CLR,,0.00,0.0,WeatherDisplay:10.37,2013-06-06 03:19:00,
2013-06-05 23:24:00,52.3,48.5,30.15,North,0,0.0,0.0,87,0.00,CLR,,0.00,0.0,WeatherDisplay:10.37,2013-06-06 03:24:00,
2013-06-05 23:29:00,52.3,48.5,30.15,North,0,0.0,0.0,87,0.00,CLR,,0.00,0.0,WeatherDisplay:10.37,2013-06-06 03:29:00,
2013-06-05 23:34:00,52.2,48.8,30.14,North,0,0.0,0.0,88,0.00,CLR,,0.00,0.0,WeatherDisplay:10.37,2013-06-06 03:34:00,
2013-06-05 23:39:00,52.1,48.7,30.14,North,0,0.0,0.0,88,0.00,CLR,,0.00,0.0,WeatherDisplay:10.37,2013-06-06 03:39:00,
2013-06-05 23:44:00,52.0,48.6,30.14,North,0,0.0,0.0,88,0.00,CLR,,0.00,0.0,WeatherDisplay:10.37,2013-06-06 03:44:00,
2013-06-05 23:49:00,51.9,48.5,30.14,North,0,0.0,0.0,88,0.00,CLR,,0.00,0.0,WeatherDisplay:10.37,2013-06-06 03:49:00,
2013-06-05 23:54:00,51.8,48.4,30.14,North,0,0.0,0.0,88,0.00,CLR,,0.00,0.0,WeatherDisplay:10.37,2013-06-06 03:54:00,
2013-06-05 23:59:00,51.7,48.3,30.14,North,0,0.0,0.0,88,0.00,CLR,,0.00,0.0,WeatherDisplay:10.37,2013-06-06 03:59:00,